﻿測定場所 (Monitoring sites),日付 (Measurement date),時間 (Measurement time),線量率 最大値 (max) μGy/h,線量率 最小値 (min) μGy/h,線量率 平均値 (average) μGy/h,
調布 (Chofu),2023-02-12,23:01～24:00,0.0289,0.0259,0.0272,
調布 (Chofu),2023-02-12,22:01～23:00,0.0298,0.0251,0.0272,
調布 (Chofu),2023-02-12,21:01～22:00,0.0293,0.0256,0.0272,
調布 (Chofu),2023-02-12,20:01～21:00,0.0296,0.0251,0.0272,
調布 (Chofu),2023-02-12,19:01～20:00,0.0291,0.0250,0.0267,
調布 (Chofu),2023-02-12,18:01～19:00,0.0285,0.0241,0.0265,
調布 (Chofu),2023-02-12,17:01～18:00,0.0280,0.0242,0.0263,
調布 (Chofu),2023-02-12,16:01～17:00,0.0281,0.0239,0.0264,
調布 (Chofu),2023-02-12,15:01～16:00,0.0285,0.0245,0.0265,
調布 (Chofu),2023-02-12,14:01～15:00,0.0283,0.0243,0.0264,
調布 (Chofu),2023-02-12,13:01～14:00,0.0285,0.0247,0.0266,
調布 (Chofu),2023-02-12,12:01～13:00,0.0286,0.0247,0.0268,
調布 (Chofu),2023-02-12,11:01～12:00,0.0289,0.0251,0.0270,
調布 (Chofu),2023-02-12,10:01～11:00,0.0288,0.0253,0.0269,
調布 (Chofu),2023-02-12,09:01～10:00,0.0291,0.0249,0.0275,
調布 (Chofu),2023-02-12,08:01～09:00,0.0290,0.0261,0.0276,
調布 (Chofu),2023-02-12,07:01～08:00,0.0292,0.0245,0.0276,
調布 (Chofu),2023-02-12,06:01～07:00,0.0302,0.0255,0.0277,
調布 (Chofu),2023-02-12,05:01～06:00,0.0300,0.0256,0.0275,
調布 (Chofu),2023-02-12,04:01～05:00,0.0290,0.0256,0.0274,
調布 (Chofu),2023-02-12,03:01～04:00,0.0290,0.0253,0.0273,
調布 (Chofu),2023-02-12,02:01～03:00,0.0288,0.0250,0.0272,
調布 (Chofu),2023-02-12,01:01～02:00,0.0297,0.0256,0.0274,
調布 (Chofu),2023-02-12,00:01～01:00,0.0294,0.0255,0.0273,
調布 (Chofu),2023-02-11,23:01～24:00,0.0287,0.0253,0.0268,
調布 (Chofu),2023-02-11,22:01～23:00,0.0283,0.0246,0.0266,
調布 (Chofu),2023-02-11,21:01～22:00,0.0285,0.0243,0.0265,
調布 (Chofu),2023-02-11,20:01～21:00,0.0283,0.0243,0.0265,
調布 (Chofu),2023-02-11,19:01～20:00,0.0289,0.0245,0.0263,
調布 (Chofu),2023-02-11,18:01～19:00,0.0282,0.0242,0.0262,
調布 (Chofu),2023-02-11,17:01～18:00,0.0290,0.0240,0.0262,
調布 (Chofu),2023-02-11,16:01～17:00,0.0283,0.0245,0.0263,
調布 (Chofu),2023-02-11,15:01～16:00,0.0275,0.0240,0.0264,
調布 (Chofu),2023-02-11,14:01～15:00,0.0281,0.0244,0.0264,
調布 (Chofu),2023-02-11,13:01～14:00,0.0284,0.0239,0.0263,
調布 (Chofu),2023-02-11,12:01～13:00,0.0277,0.0241,0.0262,
調布 (Chofu),2023-02-11,11:01～12:00,0.0275,0.0244,0.0262,
調布 (Chofu),2023-02-11,10:01～11:00,0.0275,0.0246,0.0259,
調布 (Chofu),2023-02-11,09:01～10:00,0.0274,0.0241,0.0258,
調布 (Chofu),2023-02-11,08:01～09:00,0.0273,0.0236,0.0256,
調布 (Chofu),2023-02-11,07:01～08:00,0.0275,0.0237,0.0252,
調布 (Chofu),2023-02-11,06:01～07:00,0.0263,0.0233,0.0249,
調布 (Chofu),2023-02-11,05:01～06:00,0.0270,0.0229,0.0251,
調布 (Chofu),2023-02-11,04:01～05:00,0.0270,0.0234,0.0252,
調布 (Chofu),2023-02-11,03:01～04:00,0.0268,0.0235,0.0254,
調布 (Chofu),2023-02-11,02:01～03:00,0.0281,0.0248,0.0263,
調布 (Chofu),2023-02-11,01:01～02:00,0.0283,0.0241,0.0260,
調布 (Chofu),2023-02-11,00:01～01:00,0.0281,0.0245,0.0259,
調布 (Chofu),2023-02-10,23:01～24:00,0.0276,0.0237,0.0257,
調布 (Chofu),2023-02-10,22:01～23:00,0.0315,0.0249,0.0277,
調布 (Chofu),2023-02-10,21:01～22:00,0.0381,0.0287,0.0333,
調布 (Chofu),2023-02-10,20:01～21:00,0.0457,0.0351,0.0390,
調布 (Chofu),2023-02-10,19:01～20:00,0.0418,0.0350,0.0380,
調布 (Chofu),2023-02-10,18:01～19:00,0.0427,0.0357,0.0380,
調布 (Chofu),2023-02-10,17:01～18:00,0.0403,0.0348,0.0373,
調布 (Chofu),2023-02-10,16:01～17:00,0.0422,0.0349,0.0385,
調布 (Chofu),2023-02-10,15:01～16:00,0.0478,0.0387,0.0435,
調布 (Chofu),2023-02-10,14:01～15:00,0.0471,0.0382,0.0416,
調布 (Chofu),2023-02-10,13:01～14:00,0.0448,0.0383,0.0410,
調布 (Chofu),2023-02-10,12:01～13:00,0.0440,0.0372,0.0412,
調布 (Chofu),2023-02-10,11:01～12:00,0.0454,0.0387,0.0416,
調布 (Chofu),2023-02-10,10:01～11:00,0.0471,0.0398,0.0425,
調布 (Chofu),2023-02-10,09:01～10:00,0.0452,0.0337,0.0385,
調布 (Chofu),2023-02-10,08:01～09:00,0.0381,0.0332,0.0354,
調布 (Chofu),2023-02-10,07:01～08:00,0.0364,0.0294,0.0331,
調布 (Chofu),2023-02-10,06:01～07:00,0.0311,0.0265,0.0289,
調布 (Chofu),2023-02-10,05:01～06:00,0.0305,0.0262,0.0280,
調布 (Chofu),2023-02-10,04:01～05:00,0.0304,0.0266,0.0281,
調布 (Chofu),2023-02-10,03:01～04:00,0.0303,0.0261,0.0280,
調布 (Chofu),2023-02-10,02:01～03:00,0.0299,0.0260,0.0281,
調布 (Chofu),2023-02-10,01:01～02:00,0.0298,0.0261,0.0279,
調布 (Chofu),2023-02-10,00:01～01:00,0.0290,0.0256,0.0276,
調布 (Chofu),2023-02-09,23:01～24:00,0.0298,0.0256,0.0277,
調布 (Chofu),2023-02-09,22:01～23:00,0.0293,0.0257,0.0274,
調布 (Chofu),2023-02-09,21:01～22:00,0.0295,0.0262,0.0276,
調布 (Chofu),2023-02-09,20:01～21:00,0.0292,0.0255,0.0273,
調布 (Chofu),2023-02-09,19:01～20:00,0.0294,0.0250,0.0271,
調布 (Chofu),2023-02-09,18:01～19:00,0.0286,0.0256,0.0273,
調布 (Chofu),2023-02-09,17:01～18:00,0.0310,0.0264,0.0275,
調布 (Chofu),2023-02-09,16:01～17:00,0.0300,0.0259,0.0275,
調布 (Chofu),2023-02-09,15:01～16:00,0.0297,0.0259,0.0273,
調布 (Chofu),2023-02-09,14:01～15:00,0.0292,0.0255,0.0271,
調布 (Chofu),2023-02-09,13:01～14:00,0.0293,0.0251,0.0275,
調布 (Chofu),2023-02-09,12:01～13:00,0.0297,0.0255,0.0275,
調布 (Chofu),2023-02-09,11:01～12:00,0.0290,0.0254,0.0275,
調布 (Chofu),2023-02-09,10:01～11:00,0.0290,0.0262,0.0276,
調布 (Chofu),2023-02-09,09:01～10:00,0.0295,0.0253,0.0276,
調布 (Chofu),2023-02-09,08:01～09:00,0.0297,0.0255,0.0276,
調布 (Chofu),2023-02-09,07:01～08:00,0.0302,0.0260,0.0278,
調布 (Chofu),2023-02-09,06:01～07:00,0.0300,0.0257,0.0275,
調布 (Chofu),2023-02-09,05:01～06:00,0.0299,0.0263,0.0278,
調布 (Chofu),2023-02-09,04:01～05:00,0.0305,0.0258,0.0282,
調布 (Chofu),2023-02-09,03:01～04:00,0.0302,0.0262,0.0278,
調布 (Chofu),2023-02-09,02:01～03:00,0.0299,0.0258,0.0279,
調布 (Chofu),2023-02-09,01:01～02:00,0.0292,0.0261,0.0280,
調布 (Chofu),2023-02-09,00:01～01:00,0.0299,0.0268,0.0283,
調布 (Chofu),2023-02-08,23:01～24:00,0.0296,0.0259,0.0280,
調布 (Chofu),2023-02-08,22:01～23:00,0.0301,0.0258,0.0282,
調布 (Chofu),2023-02-08,21:01～22:00,0.0303,0.0267,0.0286,
調布 (Chofu),2023-02-08,20:01～21:00,0.0342,0.0289,0.0318,
調布 (Chofu),2023-02-08,19:01～20:00,0.0351,0.0289,0.0324,
調布 (Chofu),2023-02-08,18:01～19:00,0.0332,0.0275,0.0295,
調布 (Chofu),2023-02-08,17:01～18:00,0.0330,0.0279,0.0306,
調布 (Chofu),2023-02-08,16:01～17:00,0.0338,0.0273,0.0305,
調布 (Chofu),2023-02-08,15:01～16:00,0.0318,0.0266,0.0281,
調布 (Chofu),2023-02-08,14:01～15:00,0.0298,0.0261,0.0281,
調布 (Chofu),2023-02-08,13:01～14:00,0.0293,0.0256,0.0278,
調布 (Chofu),2023-02-08,12:01～13:00,0.0300,0.0260,0.0280,
調布 (Chofu),2023-02-08,11:01～12:00,0.0303,0.0267,0.0285,
調布 (Chofu),2023-02-08,10:01～11:00,0.0308,0.0264,0.0283,
調布 (Chofu),2023-02-08,09:01～10:00,0.0300,0.0265,0.0284,
調布 (Chofu),2023-02-08,08:01～09:00,0.0298,0.0265,0.0283,
調布 (Chofu),2023-02-08,07:01～08:00,0.0295,0.0261,0.0280,
調布 (Chofu),2023-02-08,06:01～07:00,0.0303,0.0260,0.0281,
調布 (Chofu),2023-02-08,05:01～06:00,0.0305,0.0261,0.0284,
調布 (Chofu),2023-02-08,04:01～05:00,0.0295,0.0264,0.0280,
調布 (Chofu),2023-02-08,03:01～04:00,0.0294,0.0263,0.0280,
調布 (Chofu),2023-02-08,02:01～03:00,0.0307,0.0262,0.0280,
調布 (Chofu),2023-02-08,01:01～02:00,0.0303,0.0262,0.0280,
調布 (Chofu),2023-02-08,00:01～01:00,0.0300,0.0264,0.0278,
調布 (Chofu),2023-02-07,23:01～24:00,0.0295,0.0256,0.0276,
調布 (Chofu),2023-02-07,22:01～23:00,0.0290,0.0254,0.0274,
調布 (Chofu),2023-02-07,21:01～22:00,0.0293,0.0257,0.0275,
調布 (Chofu),2023-02-07,20:01～21:00,0.0295,0.0254,0.0273,
調布 (Chofu),2023-02-07,19:01～20:00,0.0293,0.0253,0.0275,
調布 (Chofu),2023-02-07,18:01～19:00,0.0288,0.0258,0.0273,
調布 (Chofu),2023-02-07,17:01～18:00,0.0292,0.0250,0.0269,
調布 (Chofu),2023-02-07,16:01～17:00,0.0289,0.0250,0.0270,
調布 (Chofu),2023-02-07,15:01～16:00,0.0294,0.0255,0.0274,
調布 (Chofu),2023-02-07,14:01～15:00,0.0293,0.0258,0.0275,
調布 (Chofu),2023-02-07,13:01～14:00,0.0295,0.0260,0.0278,
調布 (Chofu),2023-02-07,12:01～13:00,0.0299,0.0258,0.0280,
調布 (Chofu),2023-02-07,11:01～12:00,0.0299,0.0253,0.0279,
調布 (Chofu),2023-02-07,10:01～11:00,0.0309,0.0264,0.0284,
調布 (Chofu),2023-02-07,09:01～10:00,0.0308,0.0273,0.0291,
調布 (Chofu),2023-02-07,08:01～09:00,0.0318,0.0277,0.0299,
調布 (Chofu),2023-02-07,07:01～08:00,0.0313,0.0280,0.0297,
調布 (Chofu),2023-02-07,06:01～07:00,0.0315,0.0271,0.0292,
調布 (Chofu),2023-02-07,05:01～06:00,0.0306,0.0267,0.0290,
調布 (Chofu),2023-02-07,04:01～05:00,0.0311,0.0267,0.0286,
調布 (Chofu),2023-02-07,03:01～04:00,0.0305,0.0274,0.0290,
調布 (Chofu),2023-02-07,02:01～03:00,0.0321,0.0269,0.0287,
調布 (Chofu),2023-02-07,01:01～02:00,0.0302,0.0273,0.0289,
調布 (Chofu),2023-02-07,00:01～01:00,0.0311,0.0269,0.0289,
調布 (Chofu),2023-02-06,23:01～24:00,0.0309,0.0270,0.0289,
調布 (Chofu),2023-02-06,22:01～23:00,0.0306,0.0261,0.0284,
調布 (Chofu),2023-02-06,21:01～22:00,0.0298,0.0260,0.0281,
調布 (Chofu),2023-02-06,20:01～21:00,0.0300,0.0267,0.0280,
調布 (Chofu),2023-02-06,19:01～20:00,0.0298,0.0257,0.0275,
調布 (Chofu),2023-02-06,18:01～19:00,0.0296,0.0261,0.0277,
調布 (Chofu),2023-02-06,17:01～18:00,0.0289,0.0254,0.0276,
調布 (Chofu),2023-02-06,16:01～17:00,0.0307,0.0255,0.0276,
調布 (Chofu),2023-02-06,15:01～16:00,0.0292,0.0252,0.0275,
調布 (Chofu),2023-02-06,14:01～15:00,0.0292,0.0255,0.0275,
調布 (Chofu),2023-02-06,13:01～14:00,0.0305,0.0258,0.0276,
調布 (Chofu),2023-02-06,12:01～13:00,0.0298,0.0263,0.0281,
調布 (Chofu),2023-02-06,11:01～12:00,0.0309,0.0259,0.0287,
調布 (Chofu),2023-02-06,10:01～11:00,0.0302,0.0266,0.0287,
調布 (Chofu),2023-02-06,09:01～10:00,0.0316,0.0260,0.0291,
調布 (Chofu),2023-02-06,08:01～09:00,0.0318,0.0277,0.0299,
調布 (Chofu),2023-02-06,07:01～08:00,0.0314,0.0282,0.0301,
調布 (Chofu),2023-02-06,06:01～07:00,0.0319,0.0281,0.0298,
調布 (Chofu),2023-02-06,05:01～06:00,0.0318,0.0275,0.0299,
調布 (Chofu),2023-02-06,04:01～05:00,0.0315,0.0277,0.0293,
調布 (Chofu),2023-02-06,03:01～04:00,0.0311,0.0270,0.0289,
調布 (Chofu),2023-02-06,02:01～03:00,0.0309,0.0265,0.0286,
調布 (Chofu),2023-02-06,01:01～02:00,0.0303,0.0267,0.0286,
調布 (Chofu),2023-02-06,00:01～01:00,0.0301,0.0266,0.0285,
